Volver al catálogo

STARLINK-35352

ActivoComunicacionesVLEO
NORAD 66177·PAYLOAD·🇺🇸 United States

Lanzado Oct 26, 2025 desde Cape Canaveral Space Force Station

Loading…

Próximos Pases (próximas 24 horas)

TLE

ActualizadoSource: Space-Track

Época: Sep 14, 2026, 21:31 UTC

1 66177U 25243A   26257.89701001  .00033206  00000-0  98861-3 0  9990
2 66177  53.1581  84.1786 0000789 110.2083 249.9004 15.34430578 49657

Sigue STARLINK-35352 en tiempo real con AllMySat

Download on the App Store